Content
SEND FEEDBACK

Daily
Averages
Monthly
Summary
United States of America

PERU, VERMONT


Home > North America > United States > Vermont
Elevation: 1660 feet     Latitude: 43 14N     Longitude: 072 54W

WEATHER
 
SELECT A DAY
Number of Records: 454,511;   Date Range: 1/1/95 - 7/23/14
 
SHARE

PRINT THIS DATA

[ ← Previous Day ]
WEATHER ALMANAC - FEBRUARY 24, 2014
[ Next Day → ]
[ °C ]   °F
Weather ElementAverageHighLow
Temperature23.4 °F33.8 °F (12:35 am)17.6 °F (8:15 pm)
Dewpoint5.8 °F12.2 °F (2:15 am)-0.4 °F (3:35 pm)
Humidity47.4 %55 % (2:55 am)32 % (12:35 am)
Barometer29.81 in29.92 in (10:55 pm)29.75 in (1:55 pm)
Wind Speed11.7 mph20.7 mph (6:15 pm)
Wind Gust31.1 mph (5:15 pm)
Weather ElementAverage
Visibility10 mi
Wind DirectionWNW (296.1 °)

Weather ElementTotal
Precipitation---
Heating Degree Days39.3 (Base 65)
Averaged from 71 records on February 24, 2014
WEATHER CONDITIONS BREAKOUT
WIND DIRECTION BREAKOUT
WEATHER BY HOUR - FEBRUARY 24, 2014
[ °C ]   °F
Local TimeTemperatureDewpointHumidityBarometerVisibilityWind DirectionWind SpeedGust SpeedPrecipitationEventsConditions
12:35 AM33.8 °F6.8 °F32 %29.77 in10.0 miWest (280°)10.4 mphPartly Cloudy
12:55 AM32.0 °F6.8 °F35 %29.77 in10.0 miWest (280°)8.1 mphClear
1:15 AM30.2 °F8.6 °F40 %29.77 in10.0 miWNW (290°)9.2 mphClear
1:35 AM30.2 °F8.6 °F40 %29.78 in10.0 miWest (280°)8.1 mphClear
1:55 AM30.2 °F8.6 °F40 %29.78 in10.0 miNW (310°)9.2 mph19.6 mphClear
2:15 AM28.4 °F12.2 °F51 %29.78 in10.0 miNW (310°)4.6 mphClear
2:35 AM28.4 °F12.2 °F51 %29.78 in10.0 miWNW (300°)8.1 mphClear
2:55 AM26.6 °F12.2 °F55 %29.77 in10.0 miWNW (300°)6.9 mphClear
3:15 AM26.6 °F12.2 °F55 %29.77 in10.0 miNW (310°)9.2 mph16.1 mphScattered Clouds
3:35 AM26.6 °F10.4 °F51 %29.77 in10.0 miNW (310°)10.4 mphMostly Cloudy
3:55 AM26.6 °F10.4 °F51 %29.77 in10.0 miWNW (300°)10.4 mph17.3 mphOvercast
4:15 AM26.6 °F10.4 °F51 %29.78 in10.0 miNNW (330°)9.2 mph16.1 mphOvercast
4:35 AM26.6 °F10.4 °F51 %29.79 in10.0 miNNW (330°)10.4 mphOvercast
4:55 AM26.6 °F10.4 °F51 %29.79 in10.0 miNW (320°)5.8 mphOvercast
5:15 AM26.6 °F10.4 °F51 %29.80 in10.0 miNW (320°)9.2 mphOvercast
5:35 AM24.8 °F8.6 °F50 %29.80 in10.0 miNW (310°)9.2 mph16.1 mphOvercast
5:55 AM24.8 °F6.8 °F46 %29.79 in10.0 miNNW (330°)9.2 mphOvercast
6:15 AM24.8 °F6.8 °F46 %29.80 in10.0 miNNW (330°)9.2 mphOvercast
6:35 AM23.0 °F6.8 °F50 %29.79 in10.0 miNNW (330°)9.2 mphOvercast
6:55 AM23.0 °F6.8 °F50 %29.79 in10.0 miNW (320°)5.8 mphOvercast
7:15 AM23.0 °F6.8 °F50 %29.79 in10.0 miWNW (300°)9.2 mphOvercast
7:35 AM23.0 °F6.8 °F50 %29.80 in10.0 miNW (310°)8.1 mphOvercast
7:55 AM23.0 °F8.6 °F54 %29.80 in10.0 miNW (310°)6.9 mphOvercast
8:15 AM23.0 °F6.8 °F50 %29.80 in10.0 miWNW (290°)9.2 mphOvercast
8:35 AM23.0 °F8.6 °F54 %29.81 in10.0 miNW (310°)6.9 mphOvercast
8:55 AM23.0 °F8.6 °F54 %29.81 in10.0 miNW (310°)8.1 mphOvercast
9:15 AM23.0 °F8.6 °F54 %29.80 in10.0 miWNW (300°)9.2 mphOvercast
9:35 AM24.8 °F8.6 °F50 %29.80 in10.0 miWest (280°)9.2 mphOvercast
9:55 AM24.8 °F8.6 °F50 %29.80 in10.0 miWNW (290°)10.4 mph17.3 mphOvercast
10:15 AM24.8 °F8.6 °F50 %29.79 in10.0 miWNW (300°)10.4 mphOvercast
10:35 AM23.0 °F8.6 °F54 %29.79 in10.0 miWNW (290°)16.1 mph24.2 mphOvercast
10:55 AM24.8 °F5.0 °F43 %29.79 in10.0 miWNW (290°)16.1 mph24.2 mphMostly Cloudy
11:15 AM24.8 °F5.0 °F43 %29.78 in10.0 miWNW (290°)18.4 mph26.5 mphMostly Cloudy
11:35 AM24.8 °F3.2 °F40 %29.78 in10.0 miWNW (300°)15.0 mph20.7 mphMostly Cloudy
11:55 AM24.8 °F5.0 °F43 %29.78 in10.0 miWest (280°)13.8 mph28.8 mphOvercast
12:15 PM24.8 °F1.4 °F36 %29.77 in10.0 miWest (270°)12.7 mph25.3 mphMostly Cloudy
12:35 PM24.8 °F1.4 °F36 %29.76 in10.0 miWest (280°)18.4 mph26.5 mphOvercast
12:55 PM24.8 °F6.8 °F46 %29.76 in10.0 miWest (270°)15.0 mph25.3 mphOvercast
1:15 PM24.8 °F5.0 °F43 %29.76 in10.0 miWNW (290°)15.0 mph24.2 mphOvercast
1:35 PM24.8 °F6.8 °F46 %29.76 in10.0 miWNW (300°)8.1 mphOvercast
1:55 PM24.8 °F6.8 °F46 %29.75 in10.0 miWest (280°)15.0 mph24.2 mphOvercast
2:15 PM24.8 °F6.8 °F46 %29.76 in10.0 miWest (260°)16.1 mph24.2 mphOvercast
2:35 PM24.8 °F6.8 °F46 %29.76 in10.0 miWSW (250°)13.8 mph21.9 mphOvercast
2:55 PM24.8 °F6.8 °F46 %29.76 in10.0 miWest (280°)15.0 mph20.7 mphOvercast
3:15 PM23.0 °F5.0 °F46 %29.77 in10.0 miWest (260°)10.4 mph20.7 mphOvercast
3:35 PM24.8 °F-0.4 °F34 %29.77 in10.0 miWest (280°)16.1 mph26.5 mphOvercast
3:55 PM24.8 °F3.2 °F40 %29.77 in10.0 miNW (310°)11.5 mph17.3 mphOvercast
4:15 PM23.0 °F3.2 °F43 %29.78 in10.0 miWNW (290°)15.0 mph21.9 mphOvercast
4:35 PM23.0 °F6.8 °F50 %29.79 in10.0 miWNW (300°)13.8 mph18.4 mphOvercast
4:55 PM21.2 °F3.2 °F46 %29.80 in10.0 miWNW (290°)16.1 mph19.6 mphOvercast
5:15 PM21.2 °F-0.4 °F39 %29.81 in10.0 miWNW (290°)15.0 mph31.1 mphOvercast
5:35 PM21.2 °F1.4 °F42 %29.81 in10.0 miWNW (290°)19.6 mph25.3 mphOvercast
5:55 PM21.2 °F1.4 °F42 %29.82 in10.0 miWNW (290°)16.1 mph24.2 mphOvercast
6:15 PM21.2 °F1.4 °F42 %29.83 in10.0 miWest (270°)20.7 mph26.5 mphOvercast
6:35 PM19.4 °F3.2 °F49 %29.85 in10.0 miWNW (290°)17.3 mph24.2 mphOvercast
6:55 PM19.4 °F1.4 °F46 %29.85 in10.0 miWNW (290°)12.7 mph24.2 mphOvercast
7:15 PM19.4 °F1.4 °F46 %29.87 in10.0 miNW (310°)10.4 mph24.2 mphOvercast
7:35 PM19.4 °F1.4 °F46 %29.88 in10.0 miWNW (300°)10.4 mph18.4 mphOvercast
7:55 PM19.4 °F3.2 °F49 %29.89 in10.0 miWNW (290°)13.8 mph20.7 mphOvercast
8:15 PM17.6 °F3.2 °F53 %29.90 in10.0 miWNW (300°)13.8 mph24.2 mphOvercast
8:35 PM17.6 °F3.2 °F53 %29.90 in10.0 miWNW (300°)11.5 mph20.7 mphOvercast
8:55 PM17.6 °F3.2 °F53 %29.91 in10.0 miWNW (300°)9.2 mphOvercast
9:15 PM17.6 °F3.2 °F53 %29.91 in10.0 miWNW (300°)5.8 mphOvercast
9:35 PM17.6 °F3.2 °F53 %29.91 in10.0 miWNW (300°)6.9 mphOvercast
9:55 PM17.6 °F1.4 °F49 %29.91 in10.0 miWNW (290°)17.3 mph25.3 mphOvercast
10:15 PM17.6 °F1.4 °F49 %29.91 in10.0 miWNW (290°)17.3 mph28.8 mphOvercast
10:35 PM17.6 °F3.2 °F53 %29.91 in10.0 miWNW (300°)17.3 mph24.2 mphOvercast
10:55 PM17.6 °F3.2 °F53 %29.92 in10.0 miWNW (300°)11.5 mph20.7 mphOvercast
11:15 PM17.6 °F3.2 °F53 %29.92 in10.0 miWNW (290°)8.1 mphOvercast
11:35 PM17.6 °F3.2 °F53 %29.92 in10.0 miWNW (290°)15.0 mph18.4 mphOvercast
11:55 PM17.6 °F3.2 °F53 %29.92 in10.0 miWNW (290°)8.1 mphOvercast
Hourly data recorded from KRUT, located miles away from Peru, Vermont







STORIES FROM OUR PARTNERS